SCOUT G-1 DEB

Satellite information

Favourite Embed

Satellite Type and Status

DEBRISIN ORBIT

Key statistics

Satellite SCOUT G-1 DEB at a glance.

Uptime

12427

Days in orbit

Revolutions

≈ 14.5

Per day

Orbit

LEO

Low Earth Orbit

Inclination

89.8

Latest

Satellite identification and parameters

Extended collection of information and parameters for SCOUT G-1 DEB.

Object identification

Identified? True

Debris? True

Object name: SCOUT G-1 DEB

International designator: 1991-045E

Object number (NORAD): 21691

Object ID (CCSDS): 21691

Country: UNITED STATES OF AMERICA (US)

Current information (Y/N): Y

RCS size: SMALL

Orbital parameters

Period: 99.017 minutes

Inclination: 89.7967 deg

SMA: 7089.808 km

Apoapsis: 720.226 km

Periapsis: 703.12 km

RAAN: 262.7511 deg

Eccentricy: 0.0012064

Argument of periapsis: 246.9587 deg

Mean anomaly: 166.8383 deg

Mean motion: 14.54290188 rev/day

Mean motion (dot): 0.00001165 rev/day2

B* drag term: 0.00027145 1/REarth

Two-line elements (TLE)

Creation date: July 6, 2025, 6:05 p.m.

Reference frame: TEME

Reference center: EARTH

Epoch: July 6, 2025, 4:56 a.m. UTC

TLE line 0: 0 SCOUT G-1 DEB

TLE line 1: 1 21691U 91045E 25187.20561582 .00001165 00000-0 27145-3 0 9995

TLE line 2: 2 21691 89.7967 262.7511 0012064 246.9587 166.8383 14.54290188790402

Live tracking on map

Real-time ground track for satellite SCOUT G-1 DEB.

In-orbit conjunctions

A list of the most updated potential collisions computed for object SCOUT G-1 DEB.

Target Orbit TCA Probability of collision Miss distance Type
OV1-20/OV1-21 AKM LEO 2024-12-18 19:22:27 0.0001752852 787.0 (m) ROCKET BODY

Associated space launch

REX (Radiation Experiment) or ISES (Integrated Space Experiment System) was an Air Force Rome Laboratory ionospheric research satellite which tested the effects of the atmosphere on radio transmissions, and employed GPS for on-board navigation and attitude control.

SCOUT G-1 DEB was lifted into orbit during the mission ‘Scout G-1 | REX’, on board a Scout G-1 space rocket.

The launch took place on June 29, 1991, 2 p.m. from Space Launch Complex 5.

For more information about the launch, click the button.

Launch to space Scout G-1 | REX
Scout G-1 | REX

Agency: N/A

Status: Launch Successful

Launch date: June 29, 1991, 2 p.m. UTC

Rocket: Scout G-1

Launch pad: Space Launch Complex 5

Location: Vandenberg SFB, CA, USA

...

Latest news about this satellite

There are no fresh news available about this satellite. Check back as we update our databases every day.


Newsletter sign-up

Weekly statistics, charts and insights to help you stay on top of the space industry.